Cambridge Bay, Nunavut

11:38 AM MDT on September 20, 2017 (GMT -0600)
Cambridge Bay

Weather History for CYCB - December, 2012

Change the Weather History Date:

Wednesday, December 19, 2012

  Actual Average Record
Temperature  
Mean Temperature -18 °F -  
Max Temperature -14 °F -19 °F 26 °F (2010)
Min Temperature -22 °F -32 °F -40 °F (1996)
Degree Days  
Heating Degree Days 83    
Moisture  
Dew Point -28 °F    
Average Humidity 57    
Maximum Humidity 64    
Minimum Humidity 39    
Precipitation  
Precipitation 0.00 in 0.01 in - ()
Sea Level Pressure  
Sea Level Pressure 30.13 in    
Wind  
Wind Speed 7 mph ()    
Max Wind Speed 14 mph    
Max Gust Speed -    
Visibility 15.0 miles    
Events      
Averages and records for this station are not official NWS values.
T = Trace of Precipitation, MM = Missing Value Source: Averaged Metar Reports

Daily Weather History Graph

Daily Weather History Graph

Search for Another Location

Airport or City:

Trip Planner

Search our weather history database for the weather conditions in past years. The results will help you decide how hot, cold, wet, or windy it might be!

Date:

Astronomy

Dec. 19, 2012 Rise Set
Actual Time 11:25 AM MST 12:30 PM MST
Civil Twilight 9:36 AM MST 2:19 PM MST
Nautical Twilight 7:57 AM MST 3:58 PM MST
Astronomical Twilight 6:41 AM MST 5:14 PM MST
Moon 11:18 AM MST (12/19) No Moon Set
Length of Visible Light 4h 43m
Length of Day
1h 04m
Waxing Crescent, 45% of the Moon is Illuminated
Dec 19
Waxing Crescent
Dec 19
First Quarter
Dec 28
Full
Jan 4
Last Quarter
Jan 11
New

Hourly Weather History & Observations

Time (MST) Temp. Windchill Dew Point Humidity Pressure Visibility Wind Dir Wind Speed Gust Speed Precip Events Conditions
12:00 AM -16.6 °F -37.9 °F -27.4 °F 58% 29.94 in 15.0 mi South 11.5 mph - N/A   Partly Cloudy
1:00 AM -16.6 °F -37.9 °F -27.4 °F 58% 29.96 in 15.0 mi SSW 11.5 mph - N/A   Partly Cloudy
2:00 AM -14.8 °F -34.6 °F -25.6 °F 58% 29.97 in 15.0 mi SSW 10.4 mph - N/A   Partly Cloudy
3:00 AM -14.8 °F -33.5 °F -25.6 °F 58% 29.99 in 15.0 mi SSW 9.2 mph - N/A   Partly Cloudy
3:30 AM - - - N/A% - 15.0 mi SSW 9.2 mph - N/A   Partly Cloudy
4:00 AM -16.6 °F -36.8 °F -27.4 °F 58% 30.01 in 15.0 mi SSW 10.4 mph - N/A   Partly Cloudy
5:00 AM -16 °F - -26 °F 42% 30.03 in 15 mi SSW 11.5 mph - -   Scattered Clouds
5:00 AM -14.8 °F -37.5 °F -25.6 °F 58% 30.03 in 15.0 mi SSW 13.8 mph - N/A   Partly Cloudy
6:00 AM -16.6 °F -38.9 °F -25.6 °F 64% 30.05 in 15.0 mi SW 12.7 mph - N/A   Partly Cloudy
7:00 AM -18.4 °F -39.1 °F -27.4 °F 63% 30.06 in 15.0 mi WSW 10.4 mph - N/A   Partly Cloudy
8:00 AM -16.6 °F -35.7 °F -25.6 °F 64% 30.08 in 15.0 mi SW 9.2 mph - N/A   Partly Cloudy
9:00 AM -16.6 °F -35.7 °F -27.4 °F 58% 30.10 in 15.0 mi SW 9.2 mph - N/A   Partly Cloudy
10:00 AM -16.6 °F - -27.4 °F 58% 30.12 in 15.0 mi West 2.3 mph - N/A   Partly Cloudy
11:00 AM -18 °F - -27 °F 45% 30.13 in 15 mi South 5.8 mph - -   Scattered Clouds
11:00 AM -18.4 °F -33.4 °F -27.4 °F 63% 30.13 in 15.0 mi South 5.8 mph - N/A   Partly Cloudy
12:00 PM -20.2 °F -37.3 °F -29.2 °F 63% 30.14 in 15.0 mi SSW 6.9 mph - N/A   Partly Cloudy
1:00 PM -18.4 °F -39.1 °F -29.2 °F 58% 30.16 in 15.0 mi SW 10.4 mph - N/A   Partly Cloudy
2:00 PM -18.4 °F -33.4 °F -29.2 °F 58% 30.18 in 15.0 mi SW 5.8 mph - N/A   Scattered Clouds
3:00 PM -18.4 °F -28.9 °F -27.4 °F 63% 30.20 in 15.0 mi West 3.5 mph - N/A   Scattered Clouds
4:00 PM -18.4 °F - -29.2 °F 58% 30.21 in 15.0 mi Calm Calm - N/A   Scattered Clouds
5:00 PM -20 °F - -31 °F 39% 30.22 in 15 mi SSW 2.3 mph - -   Partly Cloudy
5:00 PM -20.2 °F - -31.0 °F 58% 30.22 in 15.0 mi SSW 2.3 mph - N/A   Scattered Clouds
6:00 PM -18.4 °F -33.4 °F -27.4 °F 63% 30.24 in 15.0 mi WSW 5.8 mph - N/A   Scattered Clouds
7:00 PM -22.0 °F - -31.0 °F 63% 30.25 in 15.0 mi NE 2.3 mph - N/A   Scattered Clouds
8:00 PM -20.2 °F - -29.2 °F 63% 30.27 in 15.0 mi ESE 2.3 mph - N/A   Scattered Clouds
9:00 PM -18.4 °F - -29.2 °F 58% 30.27 in 15.0 mi Calm Calm - N/A   Scattered Clouds
10:00 PM -20.2 °F - -31.0 °F 58% 30.29 in 15.0 mi NNE 2.3 mph - N/A   Scattered Clouds
11:00 PM -20 °F - -30 °F 44% 30.29 in 15 mi WNW 3.5 mph - -   Scattered Clouds